Defiance, OH

11:48 AM EST on February 27, 2017 (GMT -0500)
Defiance Memorial

Weather History for KDFI - September, 2013

Change the Weather History Date:

Sunday, September 1, 2013

  Actual Average Record
Temperature  
Mean Temperature 74 °F -  
Max Temperature 80 °F 81 °F 98 °F (1953)
Min Temperature 68 °F 56 °F 40 °F (1949)
Cooling Degree Days 8    
Growing Degree Days 24 (Base 50)    
Moisture  
Dew Point 68 °F    
Average Humidity 81    
Maximum Humidity 93    
Minimum Humidity 69    
Precipitation  
Precipitation 0.01 in - - ()
Sea Level Pressure  
Sea Level Pressure 29.78 in    
Wind  
Wind Speed 4 mph (SSW)    
Max Wind Speed 9 mph    
Max Gust Speed -    
Visibility 9 miles    
Events Rain    
Averages and records for this station are not official NWS values.
T = Trace of Precipitation, MM = Missing Value Source: NWS Daily Summary

Daily Weather History Graph

Daily Weather History Graph

Search for Another Location

Airport or City:

Trip Planner

Search our weather history database for the weather conditions in past years. The results will help you decide how hot, cold, wet, or windy it might be!

Date:

Astronomy

Sep. 01, 2013 Rise Set
Actual Time 7:04 AM EDT 8:10 PM EDT
Civil Twilight 6:35 AM EDT 8:38 PM EDT
Nautical Twilight 6:01 AM EDT 9:12 PM EDT
Astronomical Twilight 5:26 AM EDT 9:47 PM EDT
Moon 3:23 AM EDT (9/1) 5:48 PM EDT (9/1)
Length of Visible Light 14h 02m
Length of Day
13h 05m
Waning Crescent, 14% of the Moon is Illuminated
Sep 1
Waning Crescent
Sep 5
New
Sep 12
First Quarter
Sep 19
Full
Sep 26
Last Quarter

Hourly Weather History & Observations

Time (EDT) Temp. Dew Point Humidity Pressure Visibility Wind Dir Wind Speed Gust Speed Precip Events Conditions
12:53 AM 73.0 °F 66.9 °F 81% 29.81 in 10.0 mi Calm Calm - N/A   Partly Cloudy
1:53 AM 72.0 °F 66.9 °F 84% 29.80 in 10.0 mi North - - N/A   Mostly Cloudy
2:53 AM 72.0 °F 68.0 °F 87% 29.80 in 7.0 mi East 3.5 mph - 0.00 in Rain Rain
3:53 AM 71.1 °F 68.0 °F 90% 29.78 in 10.0 mi ESE 4.6 mph - 0.01 in   Overcast
4:53 AM 70.0 °F 66.9 °F 90% 29.78 in 10.0 mi South 5.8 mph - N/A   Mostly Cloudy
5:53 AM 70.0 °F 66.9 °F 90% 29.79 in 10.0 mi SSE 3.5 mph - N/A   Overcast
6:53 AM 68.0 °F 66.0 °F 93% 29.79 in 8.0 mi Calm Calm - N/A   Partly Cloudy
7:53 AM 69.1 °F 66.0 °F 90% 29.79 in 7.0 mi Calm Calm - N/A   Mostly Cloudy
8:53 AM 71.1 °F 66.9 °F 87% 29.79 in 9.0 mi SSW 4.6 mph - N/A   Mostly Cloudy
9:16 AM 73.4 °F 66.2 °F 78% 29.80 in 10.0 mi SSW 6.9 mph - N/A   Partly Cloudy
9:43 AM 71.6 °F 66.2 °F 83% 29.79 in 10.0 mi South 6.9 mph - N/A   Mostly Cloudy
9:53 AM 73.0 °F 66.9 °F 81% 29.79 in 10.0 mi South 6.9 mph - N/A   Overcast
10:53 AM 73.9 °F 68.0 °F 82% 29.79 in 6.0 mi SSW 5.8 mph - N/A   Haze
11:16 AM 73.4 °F 68.0 °F 83% 29.81 in 6.0 mi SSW 5.8 mph - N/A   Haze
11:44 AM 75.2 °F 68.0 °F 78% 29.80 in 7.0 mi SSW 6.9 mph - N/A   Overcast
11:53 AM 75.0 °F 68.0 °F 79% 29.80 in 8.0 mi SSW 5.8 mph - N/A   Overcast
12:33 PM 75.2 °F 68.0 °F 78% 29.81 in 10.0 mi SW 4.6 mph - N/A   Overcast
12:53 PM 75.9 °F 68.0 °F 76% 29.79 in 10.0 mi SSW 5.8 mph - N/A   Overcast
1:53 PM 77.0 °F 68.0 °F 74% 29.78 in 10.0 mi SSW 5.8 mph - N/A   Overcast
2:53 PM 78.1 °F 68.0 °F 71% 29.78 in 10.0 mi SSW 4.6 mph - N/A   Overcast
3:53 PM 78.1 °F 68.0 °F 71% 29.78 in 10.0 mi SW 9.2 mph - N/A   Overcast
4:53 PM 78.1 °F 68.0 °F 71% 29.77 in 9.0 mi Calm Calm - N/A   Overcast
5:13 PM 78.8 °F 68.0 °F 69% 29.77 in 9.0 mi WSW 5.8 mph - N/A   Overcast
5:32 PM 78.8 °F 69.8 °F 74% 29.77 in 9.0 mi SW 4.6 mph - N/A   Overcast
5:53 PM 79.0 °F 69.1 °F 72% 29.75 in 10.0 mi SSW 8.1 mph - N/A   Mostly Cloudy
6:01 PM 78.8 °F 69.8 °F 74% 29.77 in 8.0 mi SSW 6.9 mph - N/A   Scattered Clouds
6:53 PM 77.0 °F 69.1 °F 76% 29.75 in 10.0 mi SSW 5.8 mph - N/A   Clear
7:53 PM 75.9 °F 68.0 °F 76% 29.75 in 9.0 mi SSW 5.8 mph - N/A   Clear
8:53 PM 73.9 °F 68.0 °F 82% 29.77 in 8.0 mi Calm Calm - N/A   Clear
9:53 PM 71.1 °F 66.9 °F 87% 29.78 in 5.0 mi SSW 3.5 mph - N/A   Clear
10:53 PM 72.0 °F 68.0 °F 87% 29.78 in 7.0 mi SW 3.5 mph - N/A   Clear
11:53 PM 71.1 °F 66.9 °F 87% 29.78 in 6.0 mi Calm Calm - N/A   Clear